Showing default

IRIDIUM 104, 41922

Orbit data source: Space-Track

IRIDIUM 104, 41922 is a payload satellite owned by Iridium (US) in LEO that was launched on Sat, 14 Jan 2017 UTC via an FALCON 9 launch vehicle from the Air Force Western Test Range (AFWTR). Payload-class satellites include a variety of spacecraft equipped with specific instruments for various scientific and technological missions. These include communications satellites like Starlink; space stations such as the ISS; scientific satellites like the Hubble; Earth observation satellites from companies like Planet Labs, Umbra, and HawkEye 360; GPS; miniature CubeSats for education and research; and military/defense satellites.

Loading next visibility...
Identifier
41922, 2017-003F
Orbit
LEO
Country
Flag of USUS
Related business
Manufacturer
OATK SSG Gilbert
Mission
Operational Commercial Communications
Bus & Motor
ELITEBUS, Unknown motor
Mass
860 kg wet, 700 kg dry
Launch date (UTC)
2017-01-14 (9 years ago)
Launch vehicle
FALCON 9
Launch site
Air Force Western Test Range (AFWTR)
Object type
Payload
Rocket body
Debris
Shape & HBR
Trap Box + 2 Pan, 4.8 m
Radar Cross Section
10.154 m², Large (>1 m²)

Expand to show TLE details & history
Last TLE update: 12 hours ago

TLE from 12 hours ago
0 IRIDIUM 104
1 41922U 17003F   25315.11326168  .00000274  00000-0  90895-4 0  9991
2 41922  86.4012 179.5802 0002349  78.6099 281.5361 14.34220520462012
Epoch: 2025-11-11T02:43Z
TLE epoch observation values (Epoch: 2025-11-11T02:43:05.809Z)
Latitude
0.00004°
Longitude
88.30152°
Altitude
780.373 km
Speed
7.464 km/s
True Right ascension
11h 58m 19s
True Declination
0° 00' 00"
Sunlit
Object was in daylight at epoch
Visualization orbit readout
Latitude
Unknown
Longitude
Unknown
Altitude
Unknown
Speed
Unknown
Apparent Right ascension
Unknown
Apparent Declination
Unknown
Sunlit
N/A
Visualization observer readout
Local Sidereal Time
10:53:15
Azimuth
Unknown
Elevation
Unknown
Doppler factor
Unknown
Orbital elements
Apogee altitude
776.303 km
Perigee altitude
772.942 km
Semi-major axis
7,152.759 km
Eccentricity
0.00023
Inclination
86.4012°
RAAN
179.5802°
Arg. of periapsis
78.6099°
True anomaly
281.50972°
Mean anomaly
281.5361°
Eccentric anomaly
281.52291°
Mean motion
3.58784 °/min
Orbital period
100.34 mins
BSTAR
0.000090895
Loading maneuver chart data...
Computing Atmospheric mass density...
Loading historical data...
Loading historical data...
Loading historical data...
Loading historical data...
Loading historical data...
Loading historical data...
Loading historical data...

Documentation

Showing up to 5 results
|